Location: Unspecified
(44.0704°N, 88.6889°W)
Time: 13:13:31
(UTC+02:00)

S-56A Canister/Altair - Visible Passes

Search period start: 17 June 2019 00:00
Search period end: 27 June 2019 00:00
Orbit: 633 x 2499 km, 38.9° (Epoch: 16 June)

Date Brightness Start Highest point End Pass type
(mag) Time Alt. Az. Time Alt. Az. Time Alt. Az.
17 Jun 7.8 04:52:27 10° W 04:57:06 40° SSW 05:00:15 16° SE visible
17 Jun 9.4 06:57:20 10° WSW 06:57:40 11° WSW 06:57:40 11° WSW visible
18 Jun 7.8 04:19:36 10° W 04:24:38 43° S 04:28:52 10° ESE visible
18 Jun 8.9 06:24:28 10° WSW 06:26:34 17° SW 06:26:34 17° SW visible
19 Jun 8.6 05:51:36 10° WSW 05:55:04 20° SSW 05:55:28 20° SSW visible
20 Jun 8.5 05:18:41 10° W 05:22:38 24° SSW 05:24:23 19° S visible
21 Jun 8.5 04:45:44 10° W 04:50:12 28° SSW 04:53:19 14° SSE visible
22 Jun 8.4 04:12:43 10° W 04:17:45 32° SSW 04:21:50 10° SE visible
24 Jun 9.4 05:13:07 10° WSW 05:15:20 13° SW 05:17:23 10° SSW visible
25 Jun 9.3 04:39:34 10° WSW 04:42:54 16° SW 04:45:51 10° S visible
